x

La Perouse Bank (46206) Wave Buoy

6:00 - Sat 25th Jun 2016 All times are PDT. -7 hours from GMT.

  • Sig Wave height 3.3ft
  • Peak Period 18s
  • Wind
  • Sea Temp 59°f
  • Ar Temp 60°f
  • Sea Pressure 1025.5mb
  • La Perouse Bank
  • La Perouse Bank

More Historic Weather Station data

Upgrade to MSW Pro to gain access to the past 30 days of data for over 8000 Wavebouys and Weather Stations around the globe.

Join Pro

Comparision Forecast

View Surf forecast
   
Sáb 06/25 6:00 3.5ft 18s  -  4 mph 1025.5mb 59f 60f
5:00 3.5ft 16s  -  4 mph 1026.1mb 59f 60f
4:00 3.5ft 17s  -  mph 1026.4mb 59f 60f
3:00 3.5ft 16s  -  2 mph 1026.6mb 59f 59f
2:00 3.5ft 17s  -  mph 1026.9mb 59f 59f
1:00 3.5ft 17s  -  2 mph 1026.9mb 59f 59f
12:00 4ft 17s  -  2 mph 1026.8mb 58f 59f
11:00 4ft 16s  -  2 mph 1026.8mb 58f 59f
10:00 4ft 17s  -  2 mph 1026.6mb 58f 59f
9:00 4ft 16s  -  2 mph 1026.5mb 58f 59f
8:00 4ft 7s  -  2 mph 1026.4mb 58f 58f
7:00 4ft 8s  -  2 mph 1026.2mb 57f 58f
6:00 3.5ft 16s  -  2 mph 1025.9mb 57f 58f
5:00 3.5ft 16s  -  2 mph 1025.8mb 57f 58f
4:00 4ft 16s  -  2 mph 1025.7mb 57f 58f
3:00 4ft 16s  -  mph 1025.9mb 57f 58f
2:00 4.5ft 7s  -  2 mph 1025.8mb 57f 58f
1:00 4ft 17s  -  4 mph 1026.1mb 57f 58f
12:00 4.5ft 8s  -  4 mph 1026.2mb 58f 58f
Sex 06/24 11:00 4.5ft 8s  -  2 mph 1026.2mb 58f 58f
10:00 4.5ft 17s  -  7 mph 1026.1mb 58f 58f
9:00 4.5ft 8s 2 7 mph 1025.7mb 58f 58f
8:00 4.5ft 17s  -  4 mph 1025.6mb 58f 58f
7:00 4.5ft 18s 2 7 mph 1025.2mb 58f 58f
6:00 4.5ft 7s 4 11 mph 1025.1mb 59f 58f
5:00 4.5ft 17s 4 11 mph 1024.8mb 59f 59f
4:00 4.5ft 17s 4 11 mph 1024.7mb 58f 59f
3:00 4.5ft 8s 2 11 mph 1024.9mb 57f 59f
2:00 4.5ft 8s 7 13 mph 1024.4mb 57f 58f
1:00 4.5ft 8s 2 9 mph 1023.8mb 57f 59f
12:00 4.5ft 7s 2 9 mph 1023.1mb 57f 59f
11:00 4.5ft 17s  -  4 mph 1022.7mb 57f 58f
10:00 4.5ft 18s 2 9 mph 1022.2mb 57f 58f
9:00 4.5ft 18s  -  9 mph 1021.7mb 57f 58f
8:00 4.5ft 18s  -  4 mph 1021.3mb 57f 57f
7:00 5ft 18s 2 16 mph 1020.8mb 57f 56f
6:00 4.5ft 18s 2 16 mph 1019.8mb 57f 57f
5:00 4.5ft 18s 2 16 mph 1019.4mb 57f 57f
4:00 4.5ft 18s 2 13 mph 1019.1mb 57f 57f
3:00 4.5ft 18s 2 13 mph 1019.1mb 57f 56f
2:00 4ft 6s  -  2 mph 1018.9mb 57f 56f
1:00 4ft 9s  -  4 mph 1018.7mb 58f 56f
12:00 4.5ft 6s  -  4 mph 1018.4mb 58f 57f
Qui 06/23 11:00 4.5ft 18s 4 11 mph 1018mb 57f 58f
10:00 4.5ft 5s 4 13 mph 1017.5mb 57f 58f
9:00 4.5ft 8s 4 11 mph 1017.2mb 58f 58f
8:00 5ft 5s  -  4 mph 1017.3mb 58f 57f
7:00 4.5ft 7s 2 16 mph 1017.3mb 58f 56f
6:00 4.5ft 6s  -  4 mph 1017.6mb 58f 56f
5:00 4.5ft 6s 2 7 mph 1017.5mb 58f 57f
4:00 4.5ft 6s  -  4 mph 1017.5mb 58f 59f
3:00 4.5ft 5s  -  4 mph 1017.1mb 58f 58f
2:00 4.5ft 7s  -  4 mph 1016.7mb 58f 58f
1:00 4ft 6s  -  9 mph 1016.3mb 58f 59f
12:00 4ft 8s  -  4 mph 1015.7mb 58f 59f
11:00 3.5ft 8s  -  4 mph 1015.2mb 57f 59f
10:00 4.5ft 8s 2 13 mph 1014.5mb 57f 58f
9:00 3.5ft 9s 4 13 mph 1014.1mb 57f 58f
8:00 3.5ft 8s 2 13 mph 1013.6mb 57f 57f
7:00 3.5ft 9s 4 16 mph 1013.1mb 57f 57f
6:00 3.5ft 9s  -  4 mph 1012.6mb 57f 58f
5:00 3.5ft 7s  -  mph 1012.4mb 57f 57f
4:00 3ft 7s  -  2 mph 1012.2mb 57f 57f
3:00 3ft 8s  -  mph 1012.3mb 57f 57f
2:00 3.5ft 8s  -  2 mph 1012.5mb 57f 57f
1:00 3.5ft 8s  -  4 mph 1012.8mb 57f 57f
12:00 4ft 8s  -  2 mph 1013.3mb 57f 57f
Qua 06/22 11:00 3.5ft 7s 2 11 mph 1013.6mb 57f 57f
10:00 3.5ft 8s  -  4 mph 1014mb 57f 58f
9:00 3.5ft 8s 4 16 mph 1014.2mb 58f 57f
8:00 3.5ft 8s 2 7 mph 1014.8mb 58f 57f
7:00 3.5ft 8s 9 18 mph 1015.2mb 58f 58f
6:00 4ft 8s  -  4 mph 1015.9mb 58f 58f
5:00 4ft 8s  -  mph 1016.6mb 58f 58f
4:00  -   -   -  mph 1017.2mb - 58f
3:00 4ft 8s  -  2 mph 1017.7mb 58f 58f
2:00 4.5ft 8s  -  4 mph 1018mb 58f 58f
1:00 4.5ft 8s 4 16 mph 1018.1mb 58f 58f
12:00 4.5ft 8s 4 13 mph 1018.3mb 58f 58f
11:00 4.5ft 8s 7 16 mph 1018.4mb 57f 58f
10:00 4.5ft 8s 4 11 mph 1018.5mb 57f 58f
9:00 4.5ft 8s 7 16 mph 1018.9mb 57f 58f
8:00 4.5ft 8s 2 7 mph 1019mb 57f 58f
7:00 5ft 8s 4 11 mph 1019mb 57f 57f
6:00 5ft 8s 2 7 mph 1019.1mb 57f 57f
5:00 5ft 8s  -  7 mph 1019.3mb 57f 57f
4:00 5ft 8s  -  2 mph 1019.7mb 57f 57f
3:00 5.5ft 8s  -  mph 1020.1mb 57f 57f